• In Deutschland
  • Länderverzeichnis
  • Für 7 Tage
  • Wassertemperatur
  • Satellitenkarten
  • Wetterkarte
  • Widgets
  • user-avatar
    Anmelden

    Stündliche Wetter Neuburg an der Donau

    Heute, 19 Februar, Montag

    Zeit Temperatur Niederschläge Wind Luftdruck Luftfeuchtigkeit
    00:00 -5°C° 0 mm 2 m/S 732 mmHg 91%
    01:00 -5°C° 0 mm 2 m/S 732 mmHg 92%
    02:00 -5°C° 0 mm 2 m/S 731 mmHg 92%
    03:00 -6°C° 0 mm 2 m/S 731 mmHg 92%
    04:00 -6°C° 0 mm 2 m/S 731 mmHg 93%
    05:00 -6°C° 0 mm 2 m/S 731 mmHg 93%
    06:00 -6°C° 0 mm 2 m/S 730 mmHg 92%
    07:00 -4°C° 0 mm 1 m/S 730 mmHg 92%
    08:00 -3°C° 0 mm 1 m/S 730 mmHg 88%
    09:00 -4°C° 0 mm 2 m/S 729 mmHg 84%
    10:00 -3°C° 0 mm 2 m/S 729 mmHg 80%
    11:00 -2°C° 0 mm 2 m/S 729 mmHg 78%
    12:00 +1°C° 0 mm 1 m/S 728 mmHg 76%
    13:00 +2°C° 0 mm 1 m/S 728 mmHg 73%
    14:00 +2°C° 0 mm 1 m/S 728 mmHg 74%
    15:00 +2°C° 0 mm 1 m/S 727 mmHg 74%
    16:00 +2°C° 0 mm 1 m/S 727 mmHg 74%
    17:00 +1°C° 0 mm 1 m/S 727 mmHg 79%
    18:00 0°C° 0 mm 1 m/S 727 mmHg 83%
    19:00 -1°C° 0 mm 1 m/S 727 mmHg 87%
    20:00 -1°C° 0 mm 1 m/S 727 mmHg 88%
    21:00 -1°C° 0 mm 1 m/S 727 mmHg 89%
    22:00 -1°C° 0 mm 1 m/S 727 mmHg 91%
    23:00 -2°C° 0 mm 0 m/S 727 mmHg 91%

    Morgen, 20 Februar, Dienstag

    Zeit Temperatur Niederschläge Wind Luftdruck Luftfeuchtigkeit
    00:00 -2°C° 0 mm 0 m/S 726 mmHg 91%
    01:00 -3°C° 0 mm 0 m/S 726 mmHg 91%
    02:00 -3°C° 0 mm 0 m/S 726 mmHg 91%
    03:00 -3°C° 0 mm 0 m/S 726 mmHg 91%
    04:00 -3°C° 0 mm 0 m/S 726 mmHg 91%
    05:00 -3°C° 0 mm 0 m/S 726 mmHg 91%
    06:00 -3°C° 0 mm 0 m/S 726 mmHg 92%
    07:00 -3°C° 0 mm 0 m/S 726 mmHg 92%
    08:00 -2°C° 0 mm 0 m/S 726 mmHg 88%
    09:00 -1°C° 0 mm 0 m/S 726 mmHg 84%
    10:00 0°C° 0 mm 1 m/S 726 mmHg 81%
    11:00 +1°C° 0 mm 1 m/S 726 mmHg 78%
    12:00 +1°C° 0 mm 1 m/S 725 mmHg 76%
    13:00 +2°C° 0 mm 1 m/S 725 mmHg 74%
    14:00 +2°C° 0 mm 1 m/S 725 mmHg 74%
    15:00 +1°C° 0 mm 2 m/S 725 mmHg 75%
    16:00 +1°C° 0 mm 2 m/S 725 mmHg 76%
    17:00 -1°C° 0 mm 2 m/S 726 mmHg 79%
    18:00 -1°C° 0 mm 2 m/S 726 mmHg 82%
    19:00 -2°C° 0 mm 2 m/S 726 mmHg 86%
    20:00 -2°C° 0 mm 2 m/S 727 mmHg 87%
    21:00 -2°C° 0 mm 2 m/S 727 mmHg 89%
    22:00 -3°C° 0 mm 2 m/S 727 mmHg 91%
    23:00 -3°C° 0 mm 2 m/S 727 mmHg 92%

    übermorgen, 21 Februar, Mittwoch

    Zeit Temperatur Niederschläge Wind Luftdruck Luftfeuchtigkeit
    00:00 -3°C° 0 mm 2 m/S 728 mmHg 93%
    01:00 -3°C° 0 mm 2 m/S 728 mmHg 94%
    02:00 -3°C° 0 mm 2 m/S 728 mmHg 92%
    03:00 -3°C° 0 mm 2 m/S 728 mmHg 91%
    04:00 -4°C° 0 mm 2 m/S 728 mmHg 90%
    05:00 -4°C° 0 mm 2 m/S 728 mmHg 89%
    06:00 -4°C° 0 mm 2 m/S 728 mmHg 88%
    07:00 -5°C° 0 mm 3 m/S 728 mmHg 86%
    08:00 -4°C° 0 mm 3 m/S 728 mmHg 82%
    09:00 -2°C° 0 mm 3 m/S 729 mmHg 77%
    10:00 -1°C° 0 mm 3 m/S 729 mmHg 73%
    11:00 0°C° 0 mm 3 m/S 728 mmHg 70%
    12:00 +1°C° 0 mm 3 m/S 728 mmHg 67%
    13:00 +2°C° 0 mm 3 m/S 728 mmHg 65%
    14:00 +2°C° 0 mm 3 m/S 728 mmHg 65%
    15:00 +1°C° 0 mm 4 m/S 727 mmHg 65%
    16:00 0°C° 0 mm 4 m/S 727 mmHg 65%
    17:00 0°C° 0 mm 4 m/S 727 mmHg 68%
    18:00 -1°C° 0 mm 4 m/S 727 mmHg 71%
    19:00 -2°C° 0 mm 4 m/S 727 mmHg 74%
    20:00 -3°C° 0 mm 4 m/S 727 mmHg 74%
    21:00 -3°C° 0 mm 4 m/S 727 mmHg 75%
    22:00 -3°C° 0 mm 4 m/S 727 mmHg 75%
    23:00 -3°C° 0 mm 4 m/S 727 mmHg 76%

    22 Februar, Donnerstag

    Zeit Temperatur Niederschläge Wind Luftdruck Luftfeuchtigkeit
    00:00 -5°C° 0 mm 5 m/S 726 mmHg 76%
    01:00 -5°C° 0 mm 5 m/S 726 mmHg 76%
    02:00 -5°C° 0 mm 5 m/S 726 mmHg 77%
    03:00 -5°C° 0 mm 5 m/S 725 mmHg 77%
    04:00 -6°C° 0 mm 5 m/S 725 mmHg 77%
    05:00 -6°C° 0 mm 5 m/S 725 mmHg 77%
    06:00 -6°C° 0 mm 5 m/S 725 mmHg 77%
    07:00 -6°C° 0 mm 6 m/S 725 mmHg 77%
    08:00 -5°C° 0 mm 6 m/S 725 mmHg 75%
    09:00 -5°C° 0 mm 6 m/S 724 mmHg 73%
    10:00 -4°C° 0 mm 6 m/S 724 mmHg 72%
    11:00 -4°C° 0 mm 6 m/S 724 mmHg 70%
    12:00 -3°C° 0 mm 6 m/S 724 mmHg 68%
    13:00 -2°C° 0 mm 6 m/S 723 mmHg 66%
    14:00 -2°C° 0 mm 6 m/S 723 mmHg 67%
    15:00 -2°C° 0 mm 6 m/S 723 mmHg 68%
    16:00 -2°C° 0 mm 6 m/S 723 mmHg 69%
    17:00 -3°C° 0,1 mm 6 m/S 723 mmHg 71%
    18:00 -3°C° 0,1 mm 6 m/S 723 mmHg 73%
    19:00 -4°C° 0,1 mm 6 m/S 723 mmHg 76%
    20:00 -4°C° 0,1 mm 6 m/S 723 mmHg 77%
    21:00 -4°C° 0,1 mm 5 m/S 723 mmHg 78%
    22:00 -5°C° 0,1 mm 5 m/S 723 mmHg 79%
    23:00 -5°C° 0 mm 5 m/S 723 mmHg 80%

    23 Februar, Freitag

    Zeit Temperatur Niederschläge Wind Luftdruck Luftfeuchtigkeit
    00:00 -5°C° 0 mm 5 m/S 723 mmHg 81%
    01:00 -5°C° 0 mm 5 m/S 723 mmHg 82%
    02:00 -5°C° 0,1 mm 5 m/S 723 mmHg 82%
    03:00 -6°C° 0,1 mm 5 m/S 723 mmHg 82%
    04:00 -6°C° 0,1 mm 5 m/S 723 mmHg 82%
    05:00 -6°C° 0,1 mm 5 m/S 723 mmHg 82%
    06:00 -6°C° 0,1 mm 5 m/S 723 mmHg 81%
    07:00 -6°C° 0,1 mm 5 m/S 723 mmHg 81%
    08:00 -6°C° 0 mm 5 m/S 723 mmHg 78%
    09:00 -5°C° 0 mm 5 m/S 723 mmHg 76%
    10:00 -5°C° 0 mm 5 m/S 723 mmHg 73%
    11:00 -4°C° 0 mm 5 m/S 723 mmHg 70%
    12:00 -4°C° 0 mm 5 m/S 723 mmHg 68%
    13:00 -2°C° 0 mm 5 m/S 723 mmHg 65%
    14:00 -2°C° 0 mm 5 m/S 723 mmHg 63%
    15:00 -2°C° 0 mm 5 m/S 723 mmHg 62%
    16:00 -2°C° 0 mm 5 m/S 723 mmHg 60%
    17:00 -3°C° 0 mm 4 m/S 724 mmHg 61%
    18:00 -4°C° 0 mm 4 m/S 724 mmHg 62%
    19:00 -7°C° 0 mm 4 m/S 724 mmHg 63%
    20:00 -7°C° 0 mm 4 m/S 725 mmHg 61%
    21:00 -8°C° 0 mm 4 m/S 725 mmHg 59%
    22:00 -9°C° 0 mm 4 m/S 726 mmHg 58%
    23:00 -9°C° 0 mm 4 m/S 726 mmHg 57%

    24 Februar, Samstag

    Zeit Temperatur Niederschläge Wind Luftdruck Luftfeuchtigkeit
    00:00 -9°C° 0 mm 4 m/S 726 mmHg 56%
    01:00 -10°C° 0 mm 4 m/S 726 mmHg 56%
    02:00 -10°C° 0 mm 4 m/S 726 mmHg 57%
    03:00 -9°C° 0 mm 3 m/S 726 mmHg 59%
    04:00 -9°C° 0 mm 3 m/S 726 mmHg 60%
    05:00 -10°C° 0 mm 3 m/S 727 mmHg 63%
    06:00 -10°C° 0 mm 3 m/S 727 mmHg 66%
    07:00 -10°C° 0 mm 3 m/S 727 mmHg 68%
    08:00 -9°C° 0 mm 3 m/S 728 mmHg 64%
    09:00 -8°C° 0 mm 3 m/S 728 mmHg 61%
    10:00 -9°C° 0 mm 4 m/S 728 mmHg 57%
    11:00 -7°C° 0 mm 3 m/S 728 mmHg 53%
    12:00 -6°C° 0 mm 3 m/S 728 mmHg 50%
    13:00 -6°C° 0 mm 3 m/S 728 mmHg 46%
    14:00 -6°C° 0,1 mm 3 m/S 728 mmHg 46%
    15:00 -6°C° 0,1 mm 3 m/S 727 mmHg 47%
    16:00 -6°C° 0,1 mm 3 m/S 727 mmHg 47%
    17:00 -7°C° 0 mm 3 m/S 727 mmHg 51%
    18:00 -6°C° 0 mm 2 m/S 728 mmHg 54%
    19:00 -7°C° 0 mm 2 m/S 728 mmHg 57%
    20:00 -7°C° 0 mm 2 m/S 728 mmHg 59%
    21:00 -8°C° 0 mm 2 m/S 728 mmHg 61%
    22:00 -7°C° 0 mm 1 m/S 728 mmHg 63%
    23:00 -7°C° 0 mm 1 m/S 728 mmHg 65%
    Mehr zeigen